Portsmouth, NH

4:01 AM EDT on May 28, 2017 (GMT -0400)
Pease International Tradeport

Weather History for KPSM - March, 2013

Change the Weather History Date:

Tuesday, March 26, 2013

  Actual Average Record
Temperature  
Mean Temperature 40 °F -  
Max Temperature 50 °F 45 °F 74 °F (1986)
Min Temperature 30 °F 30 °F 9 °F (1983)
Degree Days  
Heating Degree Days 25    
Moisture  
Dew Point 20 °F    
Average Humidity 46    
Maximum Humidity 74    
Minimum Humidity 25    
Precipitation  
Precipitation 0.00 in - - ()
Sea Level Pressure  
Sea Level Pressure 29.65 in    
Wind  
Wind Speed 10 mph (NNW)    
Max Wind Speed 14 mph    
Max Gust Speed 20 mph    
Visibility 10 miles    
Events      
Averages and records for this station are not official NWS values.
T = Trace of Precipitation, MM = Missing Value Source: NWS Daily Summary

Daily Weather History Graph

Daily Weather History Graph

Search for Another Location

Airport or City:

Trip Planner

Search our weather history database for the weather conditions in past years. The results will help you decide how hot, cold, wet, or windy it might be!

Date:

Astronomy

Mar. 26, 2013 Rise Set
Actual Time 6:35 AM EDT 7:02 PM EDT
Civil Twilight 6:07 AM EDT 7:31 PM EDT
Nautical Twilight 5:33 AM EDT 8:05 PM EDT
Astronomical Twilight 4:58 AM EDT 8:39 PM EDT
Moon 6:36 PM EDT (3/26) 5:50 AM EDT (3/26)
Length of Visible Light 13h 24m
Length of Day
12h 27m
Waxing Gibbous, 99% of the Moon is Illuminated
Mar 26
Waxing Gibbous
Mar 27
Full
Apr 3
Last Quarter
Apr 10
New
Apr 18
First Quarter

Hourly Weather History & Observations

Time (EDT) Temp. Windchill Dew Point Humidity Pressure Visibility Wind Dir Wind Speed Gust Speed Precip Events Conditions
12:55 AM 37.0 °F 30.4 °F 24.6 °F 61% 29.56 in 10.0 mi North 9.2 mph - N/A   Overcast
1:55 AM 36.7 °F 29.9 °F 24.3 °F 61% 29.56 in 10.0 mi North 9.2 mph - N/A   Overcast
2:55 AM 36.3 °F 28.4 °F 24.1 °F 61% 29.56 in 10.0 mi North 11.5 mph - N/A   Overcast
3:55 AM 35.6 °F 28.0 °F 23.7 °F 62% 29.55 in 10.0 mi North 10.4 mph - N/A   Scattered Clouds
4:55 AM 34.5 °F 27.3 °F 23.5 °F 64% 29.57 in 10.0 mi North 9.2 mph - N/A   Partly Cloudy
5:55 AM 33.3 °F 25.1 °F 23.0 °F 66% 29.59 in 10.0 mi NNW 10.4 mph - N/A   Partly Cloudy
6:55 AM 30.4 °F 23.6 °F 23.0 °F 74% 29.61 in 10.0 mi WNW 6.9 mph - N/A   Partly Cloudy
7:55 AM 34.7 °F 27.5 °F 22.8 °F 62% 29.64 in 10.0 mi NNW 9.2 mph - N/A   Partly Cloudy
8:55 AM 38.8 °F 31.6 °F 20.5 °F 48% 29.65 in 10.0 mi North 11.5 mph - N/A   Partly Cloudy
9:55 AM 40.5 °F 32.8 °F 19.9 °F 44% 29.65 in 10.0 mi NNW 13.8 mph - N/A   Partly Cloudy
10:55 AM 42.8 °F 35.8 °F 19.2 °F 39% 29.66 in 10.0 mi NNW 13.8 mph - N/A   Partly Cloudy
11:55 AM 44.4 °F 39.5 °F 18.3 °F 35% 29.67 in 10.0 mi NNW 9.2 mph - N/A   Partly Cloudy
12:55 PM 46.2 °F 41.2 °F 16.7 °F 31% 29.66 in 10.0 mi North 10.4 mph - N/A   Partly Cloudy
1:55 PM 48.2 °F - 17.4 °F 29% 29.66 in 10.0 mi NNW 10.4 mph - N/A   Partly Cloudy
2:55 PM 49.3 °F - 15.8 °F 26% 29.65 in 10.0 mi NNW 12.7 mph - N/A   Partly Cloudy
3:55 PM 50.4 °F - 16.0 °F 26% 29.65 in 10.0 mi NW 9.2 mph 19.6 mph N/A   Partly Cloudy
4:55 PM 50.7 °F - 15.8 °F 25% 29.65 in 10.0 mi NW 10.4 mph - N/A   Scattered Clouds
5:55 PM 48.4 °F - 16.5 °F 28% 29.67 in 10.0 mi NW 10.4 mph - N/A   Scattered Clouds
6:55 PM 44.8 °F 41.0 °F 16.7 °F 32% 29.69 in 10.0 mi NW 6.9 mph - N/A   Scattered Clouds
7:55 PM 45.1 °F 40.8 °F 16.9 °F 32% 29.71 in 10.0 mi WNW 8.1 mph - N/A   Mostly Cloudy
8:55 PM 39.7 °F 36.5 °F 17.6 °F 41% 29.73 in 10.0 mi North 4.6 mph - N/A   Clear
9:55 PM 36.5 °F 30.3 °F 19.2 °F 50% 29.75 in 10.0 mi NW 8.1 mph - N/A   Partly Cloudy
10:55 PM 37.6 °F 33.1 °F 18.5 °F 46% 29.75 in 10.0 mi WNW 5.8 mph - N/A   Clear
11:55 PM 35.6 °F 29.9 °F 20.1 °F 53% 29.76 in 10.0 mi West 6.9 mph - N/A   Clear